Weather History for International Falls, MN

Change the Weather History Date:

Saturday, May 4, 2013

  Actual Average Record
Temperature  
Mean Temperature 35 °F 48 °F  
Max Temperature 38 °F 61 °F 90 °F (1952)
Min Temperature 32 °F 35 °F 19 °F (1967)
Degree Days  
Heating Degree Days 30 17  
Month to date heating degree days 126 72  
Since 1 July heating degree days 10202 9710  
Cooling Degree Days 0 0  
Month to date cooling degree days 0 0  
Year to date cooling degree days 0 1  
Moisture  
Dew Point 34 °F    
Average Humidity 91    
Maximum Humidity 100    
Minimum Humidity 82    
Precipitation  
Precipitation 0.32 in 0.08 in 1.02 in (1950)
Month to date precipitation 0.33 0.31  
Year to date precipitation 7.01 3.98  
Snow  
Snow 0.00 in 0.00 in 1.30 in (1991)
Month to date snowfall 0.0 0.1  
Since 1 July snowfall 98.6 70.9  
Snow Depth 0.00 in    
Sea Level Pressure  
Sea Level Pressure 30.30 in    
Wind  
Wind Speed 6 mph (NNE)    
Max Wind Speed 13 mph    
Max Gust Speed 17 mph    
Visibility 10 miles    
Events Rain    
T = Trace of Precipitation, MM = Missing Value Source: NWS Daily Summary

Daily Weather History Graph

Daily Weather History Graph

Search for Another Location

Airport:

Trip Planner

Search our weather history database for the weather conditions in past years. The results will help you decide how hot, cold, wet, or windy it might be!

Date:

Astronomy

May. 04, 2013 Rise Set
Actual Time 5:48 AM CDT 8:33 PM CDT
Civil Twilight 5:12 AM CDT 9:08 PM CDT
Nautical Twilight 4:27 AM CDT 9:54 PM CDT
Astronomical Twilight 3:33 AM CDT 10:49 PM CDT
Moon 3:13 AM CDT (5/4) 3:07 PM CDT (5/4)
Length of Visible Light 15h 56m
Length of Day
14h 44m
Waning Crescent, 27% of the Moon is Illuminated
May 4
Waning Crescent
May 9
New
May 17
First Quarter
May 24
Full
May 31
Last Quarter

Hourly Weather History & Observations

Time (CDT) Temp. Windchill Dew Point Humidity Pressure Visibility Wind Dir Wind Speed Gust Speed Precip Events Conditions
12:55 AM 34.0 °F 27.2 °F 28.0 °F 79% 30.32 in 10.0 mi NE 8.1 mph - 0.01 in Rain Light Rain
1:55 AM 33.1 °F 28.7 °F 28.9 °F 85% 30.31 in 10.0 mi NE 4.6 mph - 0.00 in   Overcast
2:55 AM 33.1 °F 28.7 °F 30.0 °F 89% 30.31 in 10.0 mi NE 4.6 mph - N/A   Overcast
3:55 AM 33.1 °F 30.0 °F 30.0 °F 89% 30.30 in 10.0 mi NE 3.5 mph - 0.00 in Rain Light Rain
4:50 AM 32.0 °F 26.4 °F 30.2 °F 93% 30.26 in 10.0 mi NNE 5.8 mph - 0.01 in Rain Light Rain
4:55 AM 33.1 °F 28.7 °F 30.9 °F 92% 30.31 in 10.0 mi NNE 4.6 mph - 0.01 in Rain Light Rain
5:44 AM 33.8 °F 29.6 °F 30.2 °F 87% 30.27 in 10.0 mi North 4.6 mph - 0.03 in Rain Light Rain
5:55 AM 33.1 °F 28.7 °F 30.9 °F 92% 30.31 in 10.0 mi North 4.6 mph - 0.03 in Rain Light Rain
6:55 AM 33.1 °F 27.7 °F 30.9 °F 92% 30.32 in 10.0 mi NNE 5.8 mph - 0.03 in Rain Light Rain
7:55 AM 33.1 °F 26.9 °F 30.9 °F 92% 30.32 in 10.0 mi North 6.9 mph - 0.03 in Rain Light Rain
8:55 AM 34.0 °F 27.2 °F 32.0 °F 92% 30.32 in 10.0 mi NNE 8.1 mph - 0.02 in Rain Light Rain
9:55 AM 34.0 °F 26.6 °F 32.0 °F 92% 30.32 in 9.0 mi NNE 9.2 mph - 0.01 in Rain Light Rain
10:12 AM 35.6 °F 28.6 °F 32.0 °F 87% 30.28 in 10.0 mi NNE 9.2 mph - 0.01 in Rain Light Rain
10:55 AM 35.1 °F 26.9 °F 33.1 °F 92% 30.33 in 10.0 mi NNE 11.5 mph - 0.02 in Rain Light Rain
11:55 AM 36.0 °F 29.6 °F 33.1 °F 89% 30.34 in 10.0 mi NNE 8.1 mph - 0.02 in Rain Light Rain
12:45 PM 35.6 °F 28.6 °F 33.8 °F 93% 30.29 in 9.0 mi NNE 9.2 mph - 0.01 in Rain Light Rain
12:55 PM 36.0 °F 29.6 °F 34.0 °F 93% 30.34 in 9.0 mi NNE 8.1 mph - 0.02 in Rain Light Rain
1:21 PM 37.4 °F 30.3 °F 35.6 °F 93% 30.28 in 10.0 mi NNE 10.4 mph - 0.02 in Rain Light Rain
1:53 PM 37.4 °F 31.4 °F 35.6 °F 93% 30.28 in 10.0 mi NNE 8.1 mph - 0.02 in Rain Light Rain
1:55 PM 37.0 °F 29.8 °F 35.1 °F 93% 30.33 in 10.0 mi NNE 10.4 mph - 0.02 in Rain Light Rain
2:03 PM 37.4 °F 30.3 °F 35.6 °F 93% 30.28 in 10.0 mi NNE 10.4 mph - 0.00 in   Overcast
2:55 PM 37.0 °F 29.8 °F 34.0 °F 89% 30.33 in 9.0 mi NNE 10.4 mph - 0.00 in Rain Light Rain
3:46 PM 37.4 °F 32.1 °F 35.6 °F 93% 30.28 in 8.0 mi NNE 6.9 mph - 0.02 in Rain Light Rain
3:55 PM 37.0 °F 31.6 °F 35.1 °F 93% 30.33 in 9.0 mi NNE 6.9 mph - 0.03 in Rain Light Rain
4:55 PM 37.0 °F 31.0 °F 35.1 °F 93% 30.32 in 10.0 mi NE 8.1 mph - 0.02 in Rain Light Rain
5:04 PM 37.4 °F 32.1 °F 35.6 °F 93% 30.28 in 10.0 mi NE 6.9 mph - 0.01 in Rain Light Rain
5:31 PM 37.4 °F 32.1 °F 35.6 °F 93% 30.27 in 10.0 mi NE 6.9 mph - 0.01 in Rain Light Rain
5:39 PM 37.4 °F 31.4 °F 35.6 °F 93% 30.27 in 10.0 mi NNE 8.1 mph - 0.01 in Rain Light Rain
5:46 PM 37.4 °F 32.8 °F 35.6 °F 93% 30.27 in 10.0 mi NE 5.8 mph - 0.01 in Rain Light Rain
5:53 PM 37.4 °F 30.8 °F 35.6 °F 93% 30.27 in 10.0 mi NNE 9.2 mph - 0.01 in Rain Light Rain
5:55 PM 37.9 °F 32.1 °F 35.1 °F 89% 30.32 in 10.0 mi NE 8.1 mph - 0.01 in Rain Light Rain
6:02 PM 37.4 °F 31.4 °F 35.6 °F 93% 30.27 in 10.0 mi NE 8.1 mph - 0.01 in Rain Light Rain
6:14 PM 37.4 °F 32.8 °F 35.6 °F 93% 30.27 in 10.0 mi NE 5.8 mph - 0.01 in Rain Light Rain
6:34 PM 37.4 °F 32.8 °F 35.6 °F 93% 30.28 in 10.0 mi NNE 5.8 mph - 0.02 in Rain Light Rain
6:45 PM 37.4 °F 32.1 °F 35.6 °F 93% 30.28 in 10.0 mi NE 6.9 mph - 0.02 in Rain Light Rain
6:53 PM 37.4 °F 31.4 °F 35.6 °F 93% 30.28 in 10.0 mi NE 8.1 mph - 0.02 in Rain Light Rain
6:55 PM 37.9 °F 32.7 °F 35.1 °F 89% 30.32 in 10.0 mi NE 6.9 mph - 0.02 in Rain Light Rain
7:55 PM 37.0 °F 33.3 °F 36.0 °F 96% 30.32 in 10.0 mi NE 4.6 mph - 0.01 in Rain Light Rain
8:55 PM 37.0 °F 32.4 °F 35.1 °F 93% 30.32 in 10.0 mi ENE 5.8 mph - 0.01 in   Overcast
9:55 PM 37.0 °F 33.3 °F 35.1 °F 93% 30.33 in 10.0 mi NE 4.6 mph - N/A   Overcast
10:55 PM 36.0 °F - 35.1 °F 97% 30.32 in 10.0 mi Calm Calm - N/A   Overcast
11:26 PM 35.6 °F 31.7 °F 35.6 °F 100% 30.27 in 10.0 mi NNE 4.6 mph - 0.00 in Rain Light Rain
11:55 PM 36.0 °F 32.1 °F 35.1 °F 97% 30.32 in 10.0 mi NE 4.6 mph - 0.00 in Rain Light Rain